Flag for Reunion (French) Weather past 2 weeks in Saint-Denis, Reunion (French)

Now
77 °F

Overcast.


Feels Like: 79 °F
Forecast: 72 / 84 °F
Wind: 8 mph from Southeast

Location: Saint-Denis / Gillot

Current Time: Jan 29, 2015 at 12:49:54 AM

Latest Report: Jan 29, 2015 at 12:30 AM


Visibility: N/A

Pressure: 29.86 "Hg

Humidity: 74%

Dew point: 68 °F

Location of Saint-DenisLocation

Historic Weather in Saint-Denis — Graph

°F

Saint-Denis temperature yesterday

Maximum temperature yesterday: 86 °F (at 1:00 PM)
Minimum temperature yesterday: 75 °F (at 3:00 AM)
Average temperature yesterday: 80 °F

Past Weeks' High & Low Weather Summary

 TemperatureHumidityPressure
High88 °F (Jan 14, 10:00 AM)100% (Jan 24, 7:30 AM)30.04 "Hg (Jan 24, 7:30 AM)
Low73 °F (Jan 23, 5:30 AM)52% (Jan 16, 2:00 PM)29.59 "Hg (Jan 15, 4:00 AM)
Average80 °F79%29.79 "Hg
* Reported Jan 13 11:00 PM — Jan 28 11:30 PM, Saint-Denis, Weather by CustomWeather, © 2014

Note: Actual official high and low records may vary slightly from our data, if they occured in-between our weather recording intervals... More about our weather records

Advertising

Saint-Denis weather history for previous 24 hours

 ConditionsComfort  
Time TempWeatherWind HumidityBarometerVisibility
11:30 PM
Jan 28
77 °FMostly cloudy.12 mph79%29.89 "HgN/A
11:00 PM79 °FPassing clouds.15 mph74%29.89 "HgN/A
10:30 PM79 °FOvercast.14 mph74%29.89 "HgN/A
10:00 PM79 °FMostly cloudy.13 mph74%29.89 "HgN/A
9:30 PM79 °FPassing clouds.12 mph74%29.89 "HgN/A
9:00 PM79 °FPartly cloudy.14 mph70%29.89 "HgN/A
8:30 PM79 °FMostly cloudy.12 mph74%29.89 "HgN/A
8:00 PM79 °FOvercast.15 mph74%29.86 "HgN/A
7:30 PM79 °FMostly cloudy.15 mph74%29.86 "HgN/A
7:00 PM79 °FPassing clouds.15 mph74%29.86 "HgN/A
6:30 PM81 °FClear.14 mph70%29.83 "HgN/A
6:00 PM82 °FScattered clouds.18 mph66%29.83 "HgN/A
4:00 PM84 °FScattered clouds.20 mph62%29.83 "HgN/A
3:34 PM84 °FScattered clouds.22 mph62%29.83 "HgN/A
2:30 PM86 °FScattered clouds.22 mph59%29.83 "HgN/A
2:00 PM86 °FScattered clouds.18 mph62%29.83 "HgN/A
1:30 PM86 °FScattered clouds.20 mph59%29.83 "HgN/A
1:00 PM86 °FScattered clouds.16 mph62%29.86 "HgN/A
11:00 AM84 °FPartly sunny.16 mph62%29.89 "HgN/A
10:00 AM84 °FPartly sunny.15 mph58%29.89 "HgN/A
9:30 AM84 °FPartly sunny.15 mph62%29.89 "HgN/A
9:00 AM82 °FPartly sunny.15 mph62%29.89 "HgN/A
8:30 AM81 °FScattered clouds.16 mph66%29.89 "HgN/A
8:00 AM79 °FScattered showers. Partly sunny.18 mph70%29.92 "HgN/A
7:30 AM81 °FScattered showers. Scattered clouds.12 mph66%29.89 "HgN/A
7:00 AM79 °FScattered showers. Broken clouds.9 mph65%29.89 "HgN/A
6:30 AM77 °FScattered showers. Partly sunny.13 mph74%29.89 "HgN/A
6:00 AM77 °FScattered showers. Broken clouds.16 mph74%29.89 "HgN/A
5:30 AM77 °FPassing clouds.15 mph79%29.89 "HgN/A
5:00 AM77 °FPassing clouds.14 mph74%29.86 "HgN/A
4:30 AM75 °FPassing clouds.12 mph74%29.86 "HgN/A
4:00 AM75 °FClear.12 mph69%29.86 "HgN/A
3:30 AM75 °FClear.12 mph69%29.86 "HgN/A
3:00 AM75 °FClear.13 mph69%29.86 "HgN/A
2:30 AM77 °FClear.13 mph69%29.89 "HgN/A
2:00 AM77 °FClear.12 mph74%29.89 "HgN/A
1:30 AM77 °FPassing clouds.14 mph79%29.89 "HgN/A
1:00 AM77 °FPassing clouds.14 mph74%29.92 "HgN/A
12:30 AM77 °FPassing clouds.12 mph69%29.92 "HgN/A
12:00 AM77 °FPassing clouds.12 mph69%29.92 "HgN/A
Weather by CustomWeather, © 2014

See weather overviewHow to use our weather pages